Regional Weather Roundup
Issued by NWS Northern Indiana

Home | Current Version | Previous Version | Text Only | Print | Product List | Glossary On
Versions: 1 2 3 4 5 6 7 8 9 10 11 12 13 14 15 16 17 18 19 20 21 22 23 24 25 26 27 28 29 30 31 32 33 34 35 36 37 38 39 40 41 42 43 44 45 46 47 48 49 50
000
ASUS43 KIWX 281810
RWRIWX

KIWX WEATHER ROUNDUP
NATIONAL WEATHER SERVICE NORTHERN INDIANA
200 PM EDT TUE JUL 28 2015

NOTE: "FAIR" INDICATES FEW OR NO CLOUDS BELOW 12,000 FEET WITH NO
SIGNIFICANT WEATHER AND/OR OBSTRUCTIONS TO VISIBILITY.

* THESE STATIONS ARE NOT UNDER NWS QUALITY CONTROL. THEY ALSO MAY NOT
  REPORT WEATHER SUCH AS PRECIPITATION OR FOG.

INZ001>027-281900-
NORTHERN INDIANA

CITY           SKY/WX    TMP DP  RH WIND       PRES   REMARKS
GARY*          MOSUNNY   88  72  58 S8        29.98F
MICHIGAN CITY* SUNNY     86  64  48 CALM      30.00F
LAPORTE*       SUNNY     88  69  53 S6        30.01F
6HR MIN TEMP:  70; 6HR MAX TEMP:  88;

KNOX*          SUNNY     84  68  58 S6        29.99F
SOUTH BEND     MOSUNNY   88  66  48 SE9       30.01F
6HR MIN TEMP:  69; 6HR MAX TEMP:  88;

ELKHART*       SUNNY     90  63  40 E8        30.01F
GOSHEN         SUNNY     87  67  51 SE8       30.02F
6HR MIN TEMP:  69; 6HR MAX TEMP:  87;

MONTICELLO*    MOSUNNY   87  75  67 S3        29.98F HX  96
6HR MIN TEMP:  72; 6HR MAX TEMP:  87;

LOGANSPORT*    PTSUNNY   86  64  48 CALM      30.01F
ROCHESTER*     MOSUNNY   90  72  55 SE7       30.02S HX  96
WARSAW*        SUNNY     86  68  54 SE7       30.02S
ANGOLA*        SUNNY     88  66  48 SE9       30.04S
FORT WAYNE     MOSUNNY   87  69  54 S7        30.02F
6HR MIN TEMP:  69; 6HR MAX TEMP:  87;

HUNTINGTON*    MOSUNNY   86  69  56 SE8       30.01F
6HR MIN TEMP:  70; 6HR MAX TEMP:  86;

PERU/GRISSOM   MOSUNNY   87  73  62 VRB2      29.99F
6HR MIN TEMP:  73; 6HR MAX TEMP:  87;

MARION*        SUNNY     85  70  59 CALM      30.01F HAZE
6HR MIN TEMP:  52; 6HR MAX TEMP:  89;


$$
INZ028>050-281900-
CENTRAL INDIANA

CITY           SKY/WX    TMP DP  RH WIND       PRES   REMARKS
LAFAYETTE      PTSUNNY   85  74  69 CALM      29.98F
6HR MIN TEMP:  72; 6HR MAX TEMP:  86;

KOKOMO*        MOSUNNY   88  73  62 SE7       30.00F HX  96
6HR MIN TEMP:  70; 6HR MAX TEMP:  88;

MUNCIE*        CLOUDY    85  71  63 CALM      30.01F
6HR MIN TEMP:  71; 6HR MAX TEMP:  85;

INDIANAPOLIS   PTSUNNY   88  69  53 S3        29.98F
6HR MIN TEMP:  75; 6HR MAX TEMP:  89;


$$
MIZ043>046-050>051-056>058-064>065-071>073-077>080-281900-
SOUTHWEST LOWER MICHIGAN

CITY           SKY/WX    TMP DP  RH WIND       PRES   REMARKS
BATTLE CREEK   SUNNY     88  65  46 S5        30.04F
6HR MIN TEMP:  70; 6HR MAX TEMP:  88;

BENTON HARBOR  SUNNY     87  66  49 S8        30.00F
6HR MIN TEMP:  68; 6HR MAX TEMP:  89;

COLDWATER*     SUNNY     84  64  51 S3        30.03F
6HR MIN TEMP:  64; 6HR MAX TEMP:  84;

HILLSDALE*     SUNNY     86  61  43 E5        30.05F
6HR MIN TEMP:  70; 6HR MAX TEMP:  86;

HOLLAND        MOSUNNY   89  61  38 VRB6      30.01F
6HR MIN TEMP:  68; 6HR MAX TEMP:  89;

GRAND RAPIDS   PTSUNNY   87  58  37 S8        30.02F
6HR MIN TEMP:  68; 6HR MAX TEMP:  88;

KALAMAZOO      SUNNY     87  62  43 S6        30.02F
6HR MIN TEMP:  69; 6HR MAX TEMP:  88;

STURGIS*       MOSUNNY   86  63  45 S5        30.02F
THREE RIVERS*  FAIR      86  66  51 SE6       30.02F
6HR MIN TEMP:  65; 6HR MAX TEMP:  86;


$$
OHZ001>008-015>018-024>025-281900-
NORTHWEST OHIO

CITY           SKY/WX    TMP DP  RH WIND       PRES   REMARKS
DEFIANCE       SUNNY     88  62  41 VRB3      30.01F
6HR MIN TEMP:  68; 6HR MAX TEMP:  90;

FINDLAY        SUNNY     88  62  41 W3        30.01F
6HR MIN TEMP:  71; 6HR MAX TEMP:  89;

TOLEDO EXPRESS MOSUNNY   87  63  44 VRB3      30.01F
6HR MIN TEMP:  68; 6HR MAX TEMP:  88;

TOLEDO METCALF SUNNY     89  65  44 NE10      30.02F
6HR MIN TEMP:  73; 6HR MAX TEMP:  89;

LIMA           SUNNY     88  63  43 CALM      30.03S
6HR MIN TEMP:  71; 6HR MAX TEMP:  89;


$$
AND FOR LAKE MICHIGAN COASTAL AND OPEN LAKE BUOY OBSERVATIONS

STATION/POSITION TEMP    WIND        PRES    VSBY  WAVE
                 AIR SEA DIR/SP/G                  HT/PER
                 (F)     (DEG/KT/KT) (MB)    (MI)  (FT/S)
CALUMET HARBOR    78      50/ 10/ 12   N/A
MICHIGAN CITY     83     140/  6/ 10   N/A
BURNS HARBOR      85     170/  3/ 12 1015.9F
SAINT JOSEPH      89     190/  6/  8 1016.6S
4 MI NW BRIDGMAN  81 75  240/  4/  4   N/A           1
MICHIGAN CITY     82 77  170/  2/  2   N/A           0
MICHIGAN CITY CG  87 70  180/  4       N/A    3 1/2  1

$$
&&


USA.gov is the U.S. government's official web portal to all federal, state and local government web resources and services.